Year,Month,Day,Hour,Minute,Value (Times are PST for temperature in C)
2018,06,17,00,00,14.20
2018,06,17,00,01,14.20
2018,06,17,00,02,14.10
2018,06,17,00,03,14.10
2018,06,17,00,04,14.10
2018,06,17,00,05,14.10
2018,06,17,00,06,14.10
2018,06,17,00,07,14.10
2018,06,17,00,08,14.10
2018,06,17,00,09,14.10
2018,06,17,00,10,14.10
2018,06,17,00,11,14.10
2018,06,17,00,12,14.20
2018,06,17,00,13,14.20
2018,06,17,00,14,14.20
2018,06,17,00,15,14.30
2018,06,17,00,16,14.30
2018,06,17,00,17,14.30
2018,06,17,00,18,14.30
2018,06,17,00,19,14.40
2018,06,17,00,20,14.40
2018,06,17,00,21,14.40
2018,06,17,00,22,14.40
2018,06,17,00,23,14.40
2018,06,17,00,24,14.40
2018,06,17,00,25,14.40
2018,06,17,00,26,14.40
2018,06,17,00,27,14.50
2018,06,17,00,28,14.50
2018,06,17,00,29,14.50
2018,06,17,00,30,14.50
2018,06,17,00,31,14.50
2018,06,17,00,32,14.50
2018,06,17,00,33,14.50
2018,06,17,00,34,14.50
2018,06,17,00,35,14.40
2018,06,17,00,36,14.40
2018,06,17,00,37,14.40
2018,06,17,00,38,14.40
2018,06,17,00,39,14.40
2018,06,17,00,40,14.30
2018,06,17,00,41,14.30
2018,06,17,00,42,14.30
2018,06,17,00,43,14.30
2018,06,17,00,44,14.30
2018,06,17,00,45,14.30
2018,06,17,00,46,14.30
2018,06,17,00,47,14.20
2018,06,17,00,48,14.20
2018,06,17,00,49,14.20
2018,06,17,00,50,14.20
2018,06,17,00,51,14.20
2018,06,17,00,52,14.10
2018,06,17,00,53,14.10
2018,06,17,00,54,14.10
2018,06,17,00,55,14.00
2018,06,17,00,56,14.00
2018,06,17,00,57,14.00
2018,06,17,00,58,14.00
2018,06,17,00,59,13.90
2018,06,17,01,00,13.90
2018,06,17,01,01,13.90
2018,06,17,01,02,13.90
2018,06,17,01,03,13.90
2018,06,17,01,04,13.90
2018,06,17,01,05,13.80
2018,06,17,01,06,13.80
2018,06,17,01,07,13.80
2018,06,17,01,08,13.80
2018,06,17,01,09,13.80
2018,06,17,01,10,13.80
2018,06,17,01,11,13.70
2018,06,17,01,12,13.70
2018,06,17,01,13,13.70
2018,06,17,01,14,13.70
2018,06,17,01,15,13.70
2018,06,17,01,16,13.70
2018,06,17,01,17,13.70
2018,06,17,01,18,13.70
2018,06,17,01,19,13.70
2018,06,17,01,20,13.70
2018,06,17,01,21,13.70
2018,06,17,01,22,13.70
2018,06,17,01,23,13.70
2018,06,17,01,24,13.70
2018,06,17,01,25,13.60
2018,06,17,01,26,13.60
2018,06,17,01,27,13.60
2018,06,17,01,28,13.60
2018,06,17,01,29,13.60
2018,06,17,01,30,13.70
2018,06,17,01,31,13.70
2018,06,17,01,32,13.70
2018,06,17,01,33,13.70
2018,06,17,01,34,13.60
2018,06,17,01,35,13.60
2018,06,17,01,36,13.60
2018,06,17,01,37,13.60
2018,06,17,01,38,13.60
2018,06,17,01,39,13.60
2018,06,17,01,40,13.60
2018,06,17,01,41,13.60
2018,06,17,01,42,13.60
2018,06,17,01,43,13.60
2018,06,17,01,44,13.60
2018,06,17,01,45,13.60
2018,06,17,01,46,13.60
2018,06,17,01,47,13.60
2018,06,17,01,48,13.70
2018,06,17,01,49,13.70
2018,06,17,01,50,13.70
2018,06,17,01,51,13.70
2018,06,17,01,52,13.80
2018,06,17,01,53,13.80
2018,06,17,01,54,13.80
2018,06,17,01,55,13.80
2018,06,17,01,56,13.80
2018,06,17,01,57,13.80
2018,06,17,01,58,13.80
2018,06,17,01,59,13.80
2018,06,17,02,00,13.80
2018,06,17,02,01,13.90
2018,06,17,02,02,13.90
2018,06,17,02,03,13.90
2018,06,17,02,04,13.90
2018,06,17,02,05,13.90
2018,06,17,02,06,13.90
2018,06,17,02,07,13.90
2018,06,17,02,08,13.90
2018,06,17,02,09,13.90
2018,06,17,02,10,13.90
2018,06,17,02,11,13.90
2018,06,17,02,12,13.80
2018,06,17,02,13,13.80
2018,06,17,02,14,13.80
2018,06,17,02,15,13.80
2018,06,17,02,16,13.70
2018,06,17,02,17,13.70
2018,06,17,02,18,13.70
2018,06,17,02,19,13.70
2018,06,17,02,20,13.60
2018,06,17,02,21,13.60
2018,06,17,02,22,13.60
2018,06,17,02,23,13.60
2018,06,17,02,24,13.50
2018,06,17,02,25,13.50
2018,06,17,02,26,13.40
2018,06,17,02,27,13.40
2018,06,17,02,28,13.40
2018,06,17,02,29,13.40
2018,06,17,02,30,13.40
2018,06,17,02,31,13.40
2018,06,17,02,32,13.40
2018,06,17,02,33,13.40
2018,06,17,02,34,13.40
2018,06,17,02,35,13.40
2018,06,17,02,36,13.40
2018,06,17,02,37,13.40
2018,06,17,02,38,13.40
2018,06,17,02,39,13.40
2018,06,17,02,40,13.40
2018,06,17,02,41,13.40
2018,06,17,02,42,13.40
2018,06,17,02,43,13.30
2018,06,17,02,44,13.30
2018,06,17,02,45,13.30
2018,06,17,02,46,13.30
2018,06,17,02,47,13.30
2018,06,17,02,48,13.30
2018,06,17,02,49,13.30
2018,06,17,02,50,13.30
2018,06,17,02,51,13.30
2018,06,17,02,52,13.20
2018,06,17,02,53,13.20
2018,06,17,02,54,13.20
2018,06,17,02,55,13.20
2018,06,17,02,56,13.20
2018,06,17,02,57,13.20
2018,06,17,02,58,13.10
2018,06,17,02,59,13.10
2018,06,17,03,00,13.10
2018,06,17,03,01,13.10
2018,06,17,03,02,13.10
2018,06,17,03,03,13.10
2018,06,17,03,04,13.10
2018,06,17,03,05,13.00
2018,06,17,03,06,13.00
2018,06,17,03,07,13.00
2018,06,17,03,08,13.00
2018,06,17,03,09,13.00
2018,06,17,03,10,13.00
2018,06,17,03,11,13.00
2018,06,17,03,12,12.90
2018,06,17,03,13,13.00
2018,06,17,03,14,13.00
2018,06,17,03,15,13.00
2018,06,17,03,16,13.10
2018,06,17,03,17,13.10
2018,06,17,03,18,13.10
2018,06,17,03,19,13.10
2018,06,17,03,20,13.10
2018,06,17,03,21,13.10
2018,06,17,03,22,13.10
2018,06,17,03,23,13.10
2018,06,17,03,24,13.10
2018,06,17,03,25,13.10
2018,06,17,03,26,13.10
2018,06,17,03,27,13.10
2018,06,17,03,28,13.10
2018,06,17,03,29,13.10
2018,06,17,03,30,13.10
2018,06,17,03,31,13.10
2018,06,17,03,32,13.10
2018,06,17,03,33,13.10
2018,06,17,03,34,13.10
2018,06,17,03,35,13.10
2018,06,17,03,36,13.10
2018,06,17,03,37,13.10
2018,06,17,03,38,13.10
2018,06,17,03,39,13.10
2018,06,17,03,40,13.00
2018,06,17,03,41,13.00
2018,06,17,03,42,13.00
2018,06,17,03,43,13.00
2018,06,17,03,44,13.00
2018,06,17,03,45,12.90
2018,06,17,03,46,12.90
2018,06,17,03,47,12.90
2018,06,17,03,48,12.90
2018,06,17,03,49,12.90
2018,06,17,03,50,12.90
2018,06,17,03,51,12.90
2018,06,17,03,52,12.80
2018,06,17,03,53,12.80
2018,06,17,03,54,12.80
2018,06,17,03,55,12.80
2018,06,17,03,56,12.80
2018,06,17,03,57,12.80
2018,06,17,03,58,12.80
2018,06,17,03,59,12.80
2018,06,17,04,00,12.80
2018,06,17,04,01,12.80
2018,06,17,04,02,12.80
2018,06,17,04,03,12.80
2018,06,17,04,04,12.80
2018,06,17,04,05,12.80
2018,06,17,04,06,12.80
2018,06,17,04,07,12.80
2018,06,17,04,08,12.80
2018,06,17,04,09,12.80
2018,06,17,04,10,12.80
2018,06,17,04,11,12.80
2018,06,17,04,12,12.80
2018,06,17,04,13,12.80
2018,06,17,04,14,12.80
2018,06,17,04,15,12.80
2018,06,17,04,16,12.80
2018,06,17,04,17,12.80
2018,06,17,04,18,12.80
2018,06,17,04,19,12.80
2018,06,17,04,20,12.80
2018,06,17,04,21,12.80
2018,06,17,04,22,12.70
2018,06,17,04,23,12.70
2018,06,17,04,24,12.70
2018,06,17,04,25,12.70
2018,06,17,04,26,12.70
2018,06,17,04,27,12.70
2018,06,17,04,28,12.70
2018,06,17,04,29,12.70
2018,06,17,04,30,12.70
2018,06,17,04,31,12.70
2018,06,17,04,32,12.70
2018,06,17,04,33,12.70
2018,06,17,04,34,12.70
2018,06,17,04,35,12.70
2018,06,17,04,36,12.80
2018,06,17,04,37,12.80
2018,06,17,04,38,12.80
2018,06,17,04,39,12.80
2018,06,17,04,40,12.80
2018,06,17,04,41,12.80
2018,06,17,04,42,12.80
2018,06,17,04,43,12.80
2018,06,17,04,44,12.80
2018,06,17,04,45,12.80
2018,06,17,04,46,12.90
2018,06,17,04,47,12.90
2018,06,17,04,48,12.90
2018,06,17,04,49,12.90
2018,06,17,04,50,13.00
2018,06,17,04,51,13.00
2018,06,17,04,52,13.00
2018,06,17,04,53,13.00
2018,06,17,04,54,13.00
2018,06,17,04,55,13.00
2018,06,17,04,56,13.00
2018,06,17,04,57,13.00
2018,06,17,04,58,13.00
2018,06,17,04,59,13.00
2018,06,17,05,00,12.90
2018,06,17,05,01,12.90
2018,06,17,05,02,12.90
2018,06,17,05,03,12.90
2018,06,17,05,04,12.90
2018,06,17,05,05,12.90
2018,06,17,05,06,12.90
2018,06,17,05,07,12.90
2018,06,17,05,08,12.90
2018,06,17,05,09,12.80
2018,06,17,05,10,12.80
2018,06,17,05,11,12.80
2018,06,17,05,12,12.80
2018,06,17,05,13,12.80
2018,06,17,05,14,12.80
2018,06,17,05,15,12.80
2018,06,17,05,16,12.80
2018,06,17,05,17,12.80
2018,06,17,05,18,12.80
2018,06,17,05,19,12.80
2018,06,17,05,20,12.80
2018,06,17,05,21,12.80
2018,06,17,05,22,12.70
2018,06,17,05,23,12.70
2018,06,17,05,24,12.70
2018,06,17,05,25,12.70
2018,06,17,05,26,12.70
2018,06,17,05,27,12.80
2018,06,17,05,28,12.80
2018,06,17,05,29,12.80
2018,06,17,05,30,12.80
2018,06,17,05,31,12.80
2018,06,17,05,32,12.80
2018,06,17,05,33,12.80
2018,06,17,05,34,12.80
2018,06,17,05,35,12.80
2018,06,17,05,36,12.80
2018,06,17,05,37,12.80
2018,06,17,05,38,12.80
2018,06,17,05,39,12.80
2018,06,17,05,40,12.70
2018,06,17,05,41,12.70
2018,06,17,05,42,12.70
2018,06,17,05,43,12.70
2018,06,17,05,44,12.70
2018,06,17,05,45,12.70
2018,06,17,05,46,12.70
2018,06,17,05,47,12.70
2018,06,17,05,48,12.80
2018,06,17,05,49,12.80
2018,06,17,05,50,12.80
2018,06,17,05,51,12.90
2018,06,17,05,52,13.00
2018,06,17,05,53,13.00
2018,06,17,05,54,13.10
2018,06,17,05,55,13.20
2018,06,17,05,56,13.20
2018,06,17,05,57,13.30
2018,06,17,05,58,13.30
2018,06,17,05,59,13.30
2018,06,17,06,00,13.30
2018,06,17,06,01,13.40
2018,06,17,06,02,13.40
2018,06,17,06,03,13.40
2018,06,17,06,04,13.50
2018,06,17,06,05,13.50
2018,06,17,06,06,13.50
2018,06,17,06,07,13.60
2018,06,17,06,08,13.60
2018,06,17,06,09,13.70
2018,06,17,06,10,13.70
2018,06,17,06,11,13.70
2018,06,17,06,12,13.70
2018,06,17,06,13,13.70
2018,06,17,06,14,13.70
2018,06,17,06,15,13.70
2018,06,17,06,16,13.80
2018,06,17,06,17,13.80
2018,06,17,06,18,13.90
2018,06,17,06,19,13.90
2018,06,17,06,20,14.00
2018,06,17,06,21,14.00
2018,06,17,06,22,14.10
2018,06,17,06,23,14.10
2018,06,17,06,24,14.20
2018,06,17,06,25,14.20
2018,06,17,06,26,14.30
2018,06,17,06,27,14.30
2018,06,17,06,28,14.30
2018,06,17,06,29,14.40
2018,06,17,06,30,14.40
2018,06,17,06,31,14.50
2018,06,17,06,32,14.50
2018,06,17,06,33,14.60
2018,06,17,06,34,14.60
2018,06,17,06,35,14.60
2018,06,17,06,36,14.70
2018,06,17,06,37,14.70
2018,06,17,06,38,14.70
2018,06,17,06,39,14.70
2018,06,17,06,40,14.70
2018,06,17,06,41,14.70
2018,06,17,06,42,14.70
2018,06,17,06,43,14.70
2018,06,17,06,44,14.70
2018,06,17,06,45,14.80
2018,06,17,06,46,14.80
2018,06,17,06,47,14.80
2018,06,17,06,48,14.80
2018,06,17,06,49,14.80
2018,06,17,06,50,14.90
2018,06,17,06,51,14.90
2018,06,17,06,52,14.90
2018,06,17,06,53,14.90
2018,06,17,06,54,15.00
2018,06,17,06,55,15.00
2018,06,17,06,56,15.10
2018,06,17,06,57,15.10
2018,06,17,06,58,15.10
2018,06,17,06,59,15.10
2018,06,17,07,00,15.10
2018,06,17,07,01,15.10
2018,06,17,07,02,15.20
2018,06,17,07,03,15.20
2018,06,17,07,04,15.30
2018,06,17,07,05,15.30
2018,06,17,07,06,15.40
2018,06,17,07,07,15.50
2018,06,17,07,08,15.50
2018,06,17,07,09,15.60
2018,06,17,07,10,15.70
2018,06,17,07,11,15.80
2018,06,17,07,12,15.90
2018,06,17,07,13,15.90
2018,06,17,07,14,16.00
2018,06,17,07,15,16.10
2018,06,17,07,16,16.10
2018,06,17,07,17,16.20
2018,06,17,07,18,16.20
2018,06,17,07,19,16.30
2018,06,17,07,20,16.30
2018,06,17,07,21,16.30
2018,06,17,07,22,16.30
2018,06,17,07,23,16.40
2018,06,17,07,24,16.40
2018,06,17,07,25,16.40
2018,06,17,07,26,16.50
2018,06,17,07,27,16.50
2018,06,17,07,28,16.60
2018,06,17,07,29,16.60
2018,06,17,07,30,16.60
2018,06,17,07,31,16.70
2018,06,17,07,32,16.70
2018,06,17,07,33,16.80
2018,06,17,07,34,16.90
2018,06,17,07,35,16.90
2018,06,17,07,36,16.90
2018,06,17,07,37,17.00
2018,06,17,07,38,16.90
2018,06,17,07,39,16.90
2018,06,17,07,40,16.90
2018,06,17,07,41,16.90
2018,06,17,07,42,16.90
2018,06,17,07,43,16.90
2018,06,17,07,44,16.90
2018,06,17,07,45,17.00
2018,06,17,07,46,17.00
2018,06,17,07,47,17.00
2018,06,17,07,48,17.00
2018,06,17,07,49,17.10
2018,06,17,07,50,17.10
2018,06,17,07,51,17.10
2018,06,17,07,52,17.20
2018,06,17,07,53,17.30
2018,06,17,07,54,17.40
2018,06,17,07,55,17.60
2018,06,17,07,56,17.70
2018,06,17,07,57,17.90
2018,06,17,07,58,18.10
2018,06,17,07,59,18.20
2018,06,17,08,00,18.30
2018,06,17,08,01,18.40
2018,06,17,08,02,18.40
2018,06,17,08,03,18.50
2018,06,17,08,04,18.60
2018,06,17,08,05,18.60
2018,06,17,08,06,18.60
2018,06,17,08,07,18.70
2018,06,17,08,08,18.70
2018,06,17,08,09,18.70
2018,06,17,08,10,18.70
2018,06,17,08,11,18.70
2018,06,17,08,12,18.80
2018,06,17,08,13,18.80
2018,06,17,08,14,18.90
2018,06,17,08,15,19.00
2018,06,17,08,16,19.10
2018,06,17,08,17,19.20
2018,06,17,08,18,19.30
2018,06,17,08,19,19.30
2018,06,17,08,20,19.40
2018,06,17,08,21,19.50
2018,06,17,08,22,19.70
2018,06,17,08,23,19.80
2018,06,17,08,24,19.90
2018,06,17,08,25,20.00
2018,06,17,08,26,20.10
2018,06,17,08,27,20.20
2018,06,17,08,28,20.30
2018,06,17,08,29,20.30
2018,06,17,08,30,20.40
2018,06,17,08,31,20.50
2018,06,17,08,32,20.60
2018,06,17,08,33,20.60
2018,06,17,08,34,20.70
2018,06,17,08,35,20.70
2018,06,17,08,36,20.80
2018,06,17,08,37,20.80
2018,06,17,08,38,20.80
2018,06,17,08,39,20.80
2018,06,17,08,40,20.90
2018,06,17,08,41,20.90
2018,06,17,08,42,20.90
2018,06,17,08,43,20.90
2018,06,17,08,44,20.90
2018,06,17,08,45,20.90
2018,06,17,08,46,20.90
2018,06,17,08,47,20.90
2018,06,17,08,48,20.90
2018,06,17,08,49,20.90
2018,06,17,08,50,20.90
2018,06,17,08,51,20.90
2018,06,17,08,52,20.90
2018,06,17,08,53,20.90
2018,06,17,08,54,20.90
2018,06,17,08,55,20.90
2018,06,17,08,56,20.80
2018,06,17,08,57,20.80
2018,06,17,08,58,20.80
2018,06,17,08,59,20.70
2018,06,17,09,00,20.70
2018,06,17,09,01,20.60
2018,06,17,09,02,20.50
2018,06,17,09,03,20.40
2018,06,17,09,04,20.30
2018,06,17,09,05,20.30
2018,06,17,09,06,20.30
2018,06,17,09,07,20.30
2018,06,17,09,08,20.30
2018,06,17,09,09,20.30
2018,06,17,09,10,20.30
2018,06,17,09,11,20.30
2018,06,17,09,12,20.30
2018,06,17,09,13,20.30
2018,06,17,09,14,20.20
2018,06,17,09,15,20.20
2018,06,17,09,16,20.10
2018,06,17,09,17,20.10
2018,06,17,09,18,20.10
2018,06,17,09,19,20.10
2018,06,17,09,20,20.10
2018,06,17,09,21,20.10
2018,06,17,09,22,20.10
2018,06,17,09,23,20.10
2018,06,17,09,24,20.20
2018,06,17,09,25,20.20
2018,06,17,09,26,20.20
2018,06,17,09,27,20.30
2018,06,17,09,28,20.30
2018,06,17,09,29,20.30
2018,06,17,09,30,20.30
2018,06,17,09,31,20.30
2018,06,17,09,32,20.30
2018,06,17,09,33,20.30
2018,06,17,09,34,20.20
2018,06,17,09,35,20.20
2018,06,17,09,36,20.20
2018,06,17,09,37,20.10
2018,06,17,09,38,20.00
2018,06,17,09,39,19.90
2018,06,17,09,40,19.90
2018,06,17,09,41,19.80
2018,06,17,09,42,19.80
2018,06,17,09,43,19.80
2018,06,17,09,44,19.70
2018,06,17,09,45,19.70
2018,06,17,09,46,19.70
2018,06,17,09,47,19.80
2018,06,17,09,48,19.80
2018,06,17,09,49,19.80
2018,06,17,09,50,19.80
2018,06,17,09,51,19.80
2018,06,17,09,52,19.80
2018,06,17,09,53,19.90
2018,06,17,09,54,20.00
2018,06,17,09,55,20.00
2018,06,17,09,56,20.10
2018,06,17,09,57,20.10
2018,06,17,09,58,20.20
2018,06,17,09,59,20.20
2018,06,17,10,00,20.30
2018,06,17,10,01,20.30
2018,06,17,10,02,20.30
2018,06,17,10,03,20.30
2018,06,17,10,04,20.30
2018,06,17,10,05,20.30
2018,06,17,10,06,20.40
2018,06,17,10,07,20.40
2018,06,17,10,08,20.40
2018,06,17,10,09,20.40
2018,06,17,10,10,20.40
2018,06,17,10,11,20.30
2018,06,17,10,12,20.30
2018,06,17,10,13,20.20
2018,06,17,10,14,20.20
2018,06,17,10,15,20.20
2018,06,17,10,16,20.20
2018,06,17,10,17,20.20
2018,06,17,10,18,20.10
2018,06,17,10,19,20.10
2018,06,17,10,20,20.10
2018,06,17,10,21,20.10
2018,06,17,10,22,20.20
2018,06,17,10,23,20.20
2018,06,17,10,24,20.10
2018,06,17,10,25,20.10
2018,06,17,10,26,20.10
2018,06,17,10,27,20.10
2018,06,17,10,28,20.10
2018,06,17,10,29,20.10
2018,06,17,10,30,20.10
2018,06,17,10,31,20.20
2018,06,17,10,32,20.30
2018,06,17,10,33,20.30
2018,06,17,10,34,20.40
2018,06,17,10,35,20.50
2018,06,17,10,36,20.50
2018,06,17,10,37,20.60
2018,06,17,10,38,20.60
2018,06,17,10,39,20.70
2018,06,17,10,40,20.70
2018,06,17,10,41,20.70
2018,06,17,10,42,20.70
2018,06,17,10,43,20.70
2018,06,17,10,44,20.70
2018,06,17,10,45,20.70
2018,06,17,10,46,20.70
2018,06,17,10,47,20.70
2018,06,17,10,48,20.80
2018,06,17,10,49,20.80
2018,06,17,10,50,20.80
2018,06,17,10,51,20.70
2018,06,17,10,52,20.60
2018,06,17,10,53,20.60
2018,06,17,10,54,20.60
2018,06,17,10,55,20.60
2018,06,17,10,56,20.60
2018,06,17,10,57,20.60
2018,06,17,10,58,20.60
2018,06,17,10,59,20.60
2018,06,17,11,00,20.60
2018,06,17,11,01,20.60
2018,06,17,11,02,20.60
2018,06,17,11,03,20.50
2018,06,17,11,04,20.50
2018,06,17,11,05,20.40
2018,06,17,11,06,20.40
2018,06,17,11,07,20.50
2018,06,17,11,08,20.50
2018,06,17,11,09,20.40
2018,06,17,11,10,20.40
2018,06,17,11,11,20.40
2018,06,17,11,12,20.40
2018,06,17,11,13,20.30
2018,06,17,11,14,20.20
2018,06,17,11,15,20.10
2018,06,17,11,16,20.10
2018,06,17,11,17,20.00
2018,06,17,11,18,19.90
2018,06,17,11,19,19.70
2018,06,17,11,20,19.60
2018,06,17,11,21,19.50
2018,06,17,11,22,19.40
2018,06,17,11,23,19.30
2018,06,17,11,24,19.20
2018,06,17,11,25,19.10
2018,06,17,11,26,18.90
2018,06,17,11,27,18.80
2018,06,17,11,28,18.80
2018,06,17,11,29,18.70
2018,06,17,11,30,18.60
2018,06,17,11,31,18.50
2018,06,17,11,32,18.40
2018,06,17,11,33,18.40
2018,06,17,11,34,18.40
2018,06,17,11,35,18.40
2018,06,17,11,36,18.00
2018,06,17,11,37,17.90
2018,06,17,11,38,17.80
2018,06,17,11,39,17.80
2018,06,17,11,40,17.70
2018,06,17,11,41,17.60
2018,06,17,11,42,17.60
2018,06,17,11,43,17.60
2018,06,17,11,44,17.50
2018,06,17,11,45,17.50
2018,06,17,11,46,17.50
2018,06,17,11,47,17.50
2018,06,17,11,48,17.50
2018,06,17,11,49,17.50
2018,06,17,11,50,17.60
2018,06,17,11,51,17.60
2018,06,17,11,52,17.60
2018,06,17,11,53,17.60
2018,06,17,11,54,17.60
2018,06,17,11,55,17.50
2018,06,17,11,56,17.50
2018,06,17,11,57,17.60
2018,06,17,11,58,17.60
2018,06,17,11,59,17.60
2018,06,17,12,00,17.60
2018,06,17,12,01,17.70
2018,06,17,12,02,17.80
2018,06,17,12,03,17.80
2018,06,17,12,04,17.90
2018,06,17,12,05,17.90
2018,06,17,12,06,18.00
2018,06,17,12,07,18.00
2018,06,17,12,08,18.10
2018,06,17,12,09,18.10
2018,06,17,12,10,18.10
2018,06,17,12,11,18.10
2018,06,17,12,12,18.20
2018,06,17,12,13,18.30
2018,06,17,12,14,18.30
2018,06,17,12,15,18.40
2018,06,17,12,16,18.50
2018,06,17,12,17,18.60
2018,06,17,12,18,18.70
2018,06,17,12,19,18.70
2018,06,17,12,20,18.70
2018,06,17,12,21,18.80
2018,06,17,12,22,18.70
2018,06,17,12,23,18.80
2018,06,17,12,24,18.80
2018,06,17,12,25,18.80
2018,06,17,12,26,18.80
2018,06,17,12,27,18.80
2018,06,17,12,28,18.90
2018,06,17,12,29,18.90
2018,06,17,12,30,19.00
2018,06,17,12,31,19.00
2018,06,17,12,32,19.10
2018,06,17,12,33,19.10
2018,06,17,12,34,19.20
2018,06,17,12,35,19.20
2018,06,17,12,36,19.20
2018,06,17,12,37,19.30
2018,06,17,12,38,19.30
2018,06,17,12,39,19.30
2018,06,17,12,40,19.40
2018,06,17,12,41,19.40
2018,06,17,12,42,19.50
2018,06,17,12,43,19.50
2018,06,17,12,44,19.60
2018,06,17,12,45,19.60
2018,06,17,12,46,19.70
2018,06,17,12,47,19.70
2018,06,17,12,48,19.70
2018,06,17,12,49,19.70
2018,06,17,12,50,19.70
2018,06,17,12,51,19.80
2018,06,17,12,52,19.80
2018,06,17,12,53,19.80
2018,06,17,12,54,19.90
2018,06,17,12,55,19.90
2018,06,17,12,56,20.00
2018,06,17,12,57,20.00
2018,06,17,12,58,20.10
2018,06,17,12,59,20.20
2018,06,17,13,00,20.20
2018,06,17,13,01,20.30
2018,06,17,13,02,20.30
2018,06,17,13,03,20.40
2018,06,17,13,04,20.40
2018,06,17,13,05,20.40
2018,06,17,13,06,20.50
2018,06,17,13,07,20.60
2018,06,17,13,08,20.60
2018,06,17,13,09,20.70
2018,06,17,13,10,20.70
2018,06,17,13,11,20.80
2018,06,17,13,12,20.80
2018,06,17,13,13,20.80
2018,06,17,13,14,20.90
2018,06,17,13,15,20.90
2018,06,17,13,16,21.00
2018,06,17,13,17,21.10
2018,06,17,13,18,21.20
2018,06,17,13,19,21.20
2018,06,17,13,20,21.30
2018,06,17,13,21,21.40
2018,06,17,13,22,21.50
2018,06,17,13,23,21.60
2018,06,17,13,24,21.80
2018,06,17,13,25,21.90
2018,06,17,13,26,22.10
2018,06,17,13,27,22.20
2018,06,17,13,28,22.30
2018,06,17,13,29,22.40
2018,06,17,13,30,22.50
2018,06,17,13,31,22.60
2018,06,17,13,32,22.70
2018,06,17,13,33,22.80
2018,06,17,13,34,22.70
2018,06,17,13,35,22.70
2018,06,17,13,36,22.60
2018,06,17,13,37,22.60
2018,06,17,13,38,22.50
2018,06,17,13,39,22.50
2018,06,17,13,40,22.40
2018,06,17,13,41,22.40
2018,06,17,13,42,22.50
2018,06,17,13,43,22.50
2018,06,17,13,44,22.60
2018,06,17,13,45,22.60
2018,06,17,13,46,22.70
2018,06,17,13,47,22.80
2018,06,17,13,48,22.80
2018,06,17,13,49,22.80
2018,06,17,13,50,22.90
2018,06,17,13,51,23.00
2018,06,17,13,52,23.00
2018,06,17,13,53,23.10
2018,06,17,13,54,23.20
2018,06,17,13,55,23.40
2018,06,17,13,56,23.50
2018,06,17,13,57,23.60
2018,06,17,13,58,23.70
2018,06,17,13,59,23.80
2018,06,17,14,00,23.90
2018,06,17,14,01,23.80
2018,06,17,14,02,23.80
2018,06,17,14,03,23.90
2018,06,17,14,04,23.90
2018,06,17,14,05,23.90
2018,06,17,14,06,23.90
2018,06,17,14,07,24.00
2018,06,17,14,08,24.10
2018,06,17,14,09,24.20
2018,06,17,14,10,24.30
2018,06,17,14,11,24.40
2018,06,17,14,12,24.40
2018,06,17,14,13,24.40
2018,06,17,14,14,24.40
2018,06,17,14,15,24.40
2018,06,17,14,16,24.30
2018,06,17,14,17,24.30
2018,06,17,14,18,24.30
2018,06,17,14,19,24.30
2018,06,17,14,20,24.20
2018,06,17,14,21,24.20
2018,06,17,14,22,24.30
2018,06,17,14,23,24.30
2018,06,17,14,24,24.30
2018,06,17,14,25,24.30
2018,06,17,14,26,24.20
2018,06,17,14,27,24.20
2018,06,17,14,28,24.20
2018,06,17,14,29,24.30
2018,06,17,14,30,24.30
2018,06,17,14,31,24.30
2018,06,17,14,32,24.30
2018,06,17,14,33,24.30
2018,06,17,14,34,24.40
2018,06,17,14,35,24.50
2018,06,17,14,36,24.60
2018,06,17,14,37,24.70
2018,06,17,14,38,24.80
2018,06,17,14,39,24.90
2018,06,17,14,40,24.90
2018,06,17,14,41,25.00
2018,06,17,14,42,25.00
2018,06,17,14,43,25.00
2018,06,17,14,44,25.10
2018,06,17,14,45,25.10
2018,06,17,14,46,25.10
2018,06,17,14,47,25.10
2018,06,17,14,48,25.10
2018,06,17,14,49,25.10
2018,06,17,14,50,25.20
2018,06,17,14,51,25.20
2018,06,17,14,52,25.20
2018,06,17,14,53,25.20
2018,06,17,14,54,25.20
2018,06,17,14,55,25.30
2018,06,17,14,56,25.40
2018,06,17,14,57,25.40
2018,06,17,14,58,25.50
2018,06,17,14,59,25.60
2018,06,17,15,00,25.70
2018,06,17,15,01,25.80
2018,06,17,15,02,25.90
2018,06,17,15,03,26.00
2018,06,17,15,04,26.10
2018,06,17,15,05,26.10
2018,06,17,15,06,26.20
2018,06,17,15,07,26.20
2018,06,17,15,08,26.20
2018,06,17,15,09,26.20
2018,06,17,15,10,26.20
2018,06,17,15,11,26.20
2018,06,17,15,12,26.20
2018,06,17,15,13,26.20
2018,06,17,15,14,26.20
2018,06,17,15,15,26.20
2018,06,17,15,16,26.30
2018,06,17,15,17,26.30
2018,06,17,15,18,26.40
2018,06,17,15,19,26.50
2018,06,17,15,20,26.50
2018,06,17,15,21,26.60
2018,06,17,15,22,26.60
2018,06,17,15,23,26.60
2018,06,17,15,24,26.50
2018,06,17,15,25,26.40
2018,06,17,15,26,26.40
2018,06,17,15,27,26.40
2018,06,17,15,28,26.40
2018,06,17,15,29,26.40
2018,06,17,15,30,26.30
2018,06,17,15,31,26.30
2018,06,17,15,32,26.30
2018,06,17,15,33,26.30
2018,06,17,15,34,26.40
2018,06,17,15,35,26.50
2018,06,17,15,36,26.60
2018,06,17,15,37,26.60
2018,06,17,15,38,26.60
2018,06,17,15,39,26.60
2018,06,17,15,40,26.50
2018,06,17,15,41,26.50
2018,06,17,15,42,26.60
2018,06,17,15,43,26.70
2018,06,17,15,44,26.80
2018,06,17,15,45,26.90
2018,06,17,15,46,26.90
2018,06,17,15,47,26.90
2018,06,17,15,48,26.90
2018,06,17,15,49,26.90
2018,06,17,15,50,27.00
2018,06,17,15,51,27.10
2018,06,17,15,52,27.10
2018,06,17,15,53,27.20
2018,06,17,15,54,27.20
2018,06,17,15,55,27.30
2018,06,17,15,56,27.30
2018,06,17,15,57,27.30
2018,06,17,15,58,27.20
2018,06,17,15,59,27.20
2018,06,17,16,00,27.20
2018,06,17,16,01,27.20
2018,06,17,16,02,27.20
2018,06,17,16,03,27.20
2018,06,17,16,04,27.20
2018,06,17,16,05,27.20
2018,06,17,16,06,27.20
2018,06,17,16,07,27.20
2018,06,17,16,08,27.20
2018,06,17,16,09,27.30
2018,06,17,16,10,27.30
2018,06,17,16,11,27.30
2018,06,17,16,12,27.40
2018,06,17,16,13,27.40
2018,06,17,16,14,27.40
2018,06,17,16,15,27.40
2018,06,17,16,16,27.40
2018,06,17,16,17,27.50
2018,06,17,16,18,27.50
2018,06,17,16,19,27.40
2018,06,17,16,20,27.50
2018,06,17,16,21,27.50
2018,06,17,16,22,27.60
2018,06,17,16,23,27.70
2018,06,17,16,24,27.70
2018,06,17,16,25,27.70
2018,06,17,16,26,27.80
2018,06,17,16,27,27.80
2018,06,17,16,28,27.80
2018,06,17,16,29,27.80
2018,06,17,16,30,27.90
2018,06,17,16,31,27.90
2018,06,17,16,32,27.90
2018,06,17,16,33,27.80
2018,06,17,16,34,27.80
2018,06,17,16,35,27.90
2018,06,17,16,36,27.90
2018,06,17,16,37,28.00
2018,06,17,16,38,28.10
2018,06,17,16,39,28.20
2018,06,17,16,40,28.20
2018,06,17,16,41,28.30
2018,06,17,16,42,28.30
2018,06,17,16,43,28.30
2018,06,17,16,44,28.30
2018,06,17,16,45,28.20
2018,06,17,16,46,28.20
2018,06,17,16,47,28.30
2018,06,17,16,48,28.30
2018,06,17,16,49,28.20
2018,06,17,16,50,28.10
2018,06,17,16,51,27.90
2018,06,17,16,52,27.60
2018,06,17,16,53,27.40
2018,06,17,16,54,27.20
2018,06,17,16,55,26.90
2018,06,17,16,56,26.50
2018,06,17,16,57,26.20
2018,06,17,16,58,25.90
2018,06,17,16,59,25.40
2018,06,17,17,00,25.10
2018,06,17,17,01,24.80
2018,06,17,17,02,24.70
2018,06,17,17,03,24.60
2018,06,17,17,04,24.60
2018,06,17,17,05,24.40
2018,06,17,17,06,24.30
2018,06,17,17,07,24.20
2018,06,17,17,08,23.90
2018,06,17,17,09,23.70
2018,06,17,17,10,23.60
2018,06,17,17,11,23.50
2018,06,17,17,12,23.40
2018,06,17,17,13,23.30
2018,06,17,17,14,23.10
2018,06,17,17,15,23.00
2018,06,17,17,16,22.90
2018,06,17,17,17,23.00
2018,06,17,17,18,22.90
2018,06,17,17,19,22.70